[[{"header":{"parameterUnit":"m.s-1","parameterCategory":1,"la1":30.2991,"la2":30.254,"lo1":-89.0895,"lo2":-89.0444,"dy":0.0017,"dx":0.0017,"nx":28,"ny":28,"refTime":"2025-04-21T03:00:00:Z","depth":0,"parameterNumber":2,"parameterNumberName":"U-component_of_WINDS"},"data":[0,0,0,0,0,0,0,0,0,0,0,0,0,0,0,0,0,0,0,0,0,0,0,0,0,0,0,0,0,0,0,0,0,0,0,0,0,0,0,0,0,0,0,0,0,0,0,0,0,0,0,0,0,0,0,0,0,0,-4.4707,-4.4708,0,-4.4752,-4.4752,-4.4753,-4.472,-4.4718,-4.4717,-4.4716,-4.4759,-4.4762,-4.4764,0,0,0,0,0,0,0,0,0,0,0,0,0,-4.4593,-4.4596,-4.4707,-4.4708,-4.4708,-4.4752,-4.4752,-4.4753,-4.472,-4.4718,-4.4717,-4.4715,-4.4758,-4.4761,-4.4764,0,0,0,0,0,0,0,0,0,0,0,0,0,-4.4641,-4.4596,-4.4707,-4.4697,-4.4697,-4.4751,-4.4752,-4.4753,-4.4721,-4.4718,-4.4716,-4.4714,-4.4757,-4.4761,-4.4765,-4.4831,0,0,-4.4776,-4.4778,0,0,0,0,0,0,0,0,-4.4638,-4.4645,-4.4698,-4.4698,-4.4698,-4.4728,-4.4728,-4.4779,-4.4721,-4.4711,-4.4716,-4.4713,-4.475,-4.4755,-4.4768,-4.4833,-4.4835,-4.4776,-4.4779,-4.478,-4.4781,0,0,0,0,0,0,0,-4.4635,-4.4643,-4.4725,-4.4699,-4.4699,-4.469,-4.4695,-4.4737,-4.4742,-4.4712,-4.471,-4.4716,-4.475,-4.4764,-4.4768,-4.4835,-4.4776,-4.478,-4.4782,-4.4783,-4.4958,-4.496,0,0,0,0,0,0,-4.4633,-4.464,-4.4723,-4.4726,-4.4662,-4.4694,-4.4699,-4.472,-4.4742,-4.4743,-4.4717,-4.4714,-4.4759,-4.4764,-4.477,-4.4848,-4.478,-4.4784,-4.4786,-4.4956,-4.4959,-4.4961,0,0,0,0,0,0,-4.463,-4.464,-4.4721,-4.4683,-4.4692,-4.4699,-4.4723,-4.4722,-4.4736,-4.4746,-4.4746,-4.4731,-4.4757,-4.4764,-4.4816,-4.4849,-4.4785,-4.4789,-4.4953,-4.4957,-4.496,-4.5006,0,0,0,0,0,0,-4.4627,-4.464,-4.4665,-4.4683,-4.4695,-4.4767,-4.4725,-4.4725,-4.4743,-4.4739,-4.4759,-4.476,-4.4756,-4.4811,-4.482,-4.4853,-4.4792,-4.495,-4.4955,-4.4959,-4.5002,-4.5011,-4.5019,0,0,0,0,0,-4.4623,-4.4675,-4.4666,-4.4676,-4.4726,-4.4769,-4.4775,-4.477,-4.4746,-4.4771,-4.4778,-4.4759,-4.4845,-4.4816,-4.4826,-4.4861,-4.4948,-4.4953,-4.4959,-4.4998,-4.5009,-4.5019,0,0,0,0,0,0,-4.4658,-4.4677,-4.4667,-4.4727,-4.4747,-4.4763,-4.4794,-4.4782,-4.4809,-4.4804,-4.4796,-4.4801,-4.4855,-4.4864,-4.4832,-4.4927,-4.4892,-4.49,-4.4919,-4.493,-4.4938,-4.4934,-4.4795,0,0,0,0,0,-4.4673,-4.4707,-4.4722,-4.4773,-4.4784,-4.4788,-4.4806,-4.4802,-4.4821,-4.4829,-4.4839,-4.4859,-4.4891,-4.4911,-4.494,-4.5004,-4.5008,-4.5033,-4.5042,-4.5049,-4.5055,-4.509,-4.5101,-4.4979,-4.4979,-4.4979,0,0,-4.4704,-4.4718,-4.474,-4.4781,-4.4795,-4.483,-4.4795,-4.4833,-4.4859,-4.4835,-4.4884,-4.4893,-4.4914,-4.4973,-4.4999,-4.4981,-4.509,-4.5056,-4.5061,-4.5063,-4.5096,-4.5108,-4.5118,-4.4983,-4.4982,-4.4981,0,0,-4.4777,-4.4792,-4.4836,-4.4853,-4.4876,-4.4879,-4.489,-4.491,-4.4915,-4.4965,-4.4948,-4.4979,-4.5033,-4.5049,-4.5065,-4.5148,-4.5132,-4.5158,-4.5202,-4.5236,-4.5245,-4.5254,-4.5283,-4.5293,-4.5165,-4.5165,-4.5165,0,-4.4811,-4.4864,-4.486,-4.4901,-4.4919,-4.4901,-4.4946,-4.4962,-4.4994,-4.5007,-4.4988,-4.5057,-4.507,-4.5132,-4.5153,-4.5166,-4.5178,-4.5154,-4.5245,-4.5253,-4.5261,-4.5288,-4.5299,-4.5168,-4.5167,-4.5167,-4.5167,0,-4.4905,-4.4942,-4.4975,-4.5007,-4.503,-4.5072,-4.5075,-4.5099,-4.5093,-4.5099,-4.515,-4.5167,-4.5199,-4.5214,-4.5208,-4.5276,-4.5265,-4.5246,-4.521,-4.5275,-4.5301,-4.5311,-4.5172,-4.5171,-4.517,-4.5169,0,0,-4.4997,-4.503,-4.5042,-4.5057,-4.5083,-4.5112,-4.5154,-4.5188,-4.5208,-4.5232,-4.5266,-4.5315,-4.5298,-4.5315,-4.5312,-4.5342,-4.5407,-4.5319,-4.532,-4.5334,-4.5482,-4.5495,-4.5507,-4.5398,-4.54,-4.5402,-4.548,0,-4.507,-4.5144,-4.5144,-4.5212,-4.5247,-4.5232,-4.5269,-4.529,-4.5297,-4.5327,-4.5334,-4.5368,-4.5344,-4.5355,-4.5384,-4.5393,-4.5436,-4.5387,-4.5429,-4.5431,-4.5422,-4.552,-4.5533,-4.5606,-4.549,-4.5492,-4.5493,0,-4.5165,-4.5193,-4.5265,-4.5288,-4.5303,-4.5336,-4.5367,-4.5397,-4.542,-4.5423,-4.5445,-4.5437,-4.5481,-4.5447,-4.5507,-4.5474,-4.5491,-4.5499,-4.5501,-4.5503,-4.5464,-4.5523,-4.5629,-4.5639,-4.5509,-4.5507,-4.5506,0,-4.5224,-4.528,-4.533,-4.5344,-4.5372,-4.5396,-4.5409,-4.5431,-4.5452,-4.548,-4.5493,-4.5525,-4.5543,-4.5568,-4.557,-4.5545,-4.563,-4.5596,-4.5633,-4.5633,-4.5649,-4.5647,-4.5758,-4.5665,-4.5664,-4.5664,-4.5664,0,-4.5304,-4.5348,-4.5357,-4.5388,-4.5438,-4.5438,-4.5487,-4.5498,-4.5518,-4.5551,-4.5541,-4.5572,-4.5574,-4.5606,-4.5608,-4.5657,-4.5665,-4.5668,-4.5668,-4.5668,-4.5667,-4.5677,-4.5671,-4.5667,-4.5667,-4.5666,-4.5665,0,-4.5376,-4.5384,-4.5438,-4.5462,-4.5469,-4.5505,-4.5525,-4.5555,-4.5562,-4.5604,-4.5614,-4.5625,-4.5663,-4.5668,-4.5712,-4.5713,-4.5772,-4.5767,-4.5764,-4.5762,-4.5798,-4.5794,-4.5917,-4.5933,-4.5831,-4.5832,-4.5833,0,-4.5426,-4.546,-4.5488,-4.551,-4.5525,-4.556,-4.5581,-4.5584,-4.5607,-4.5638,-4.5664,-4.5701,-4.573,-4.5791,-4.5803,-4.5836,-4.5831,-4.5872,-4.5836,-4.5835,-4.583,-4.5827,-4.583,-4.5878,-4.5879,-4.588,-4.5881,0,-4.5513,-4.5516,-4.5548,-4.5582,-4.5609,-4.5635,-4.566,-4.5679,-4.5685,-4.5712,-4.575,-4.5773,-4.5819,-4.5855,-4.5889,-4.5903,-4.5893,-4.5893,-4.5903,-4.5902,-4.5898,-4.5899,-4.578,-4.5889,-4.5888,-4.5888,-4.5887,-4.5887,-4.5574,-4.5604,-4.5629,-4.5666,-4.5685,-4.571,-4.5739,-4.5752,-4.5784,-4.5822,-4.5822,-4.5864,-4.5889,-4.5934,-4.595,-4.5983,-4.597,-4.5985,-4.5988,-4.5991,-4.5994,-4.5895,-4.599,-4.599,-4.5989,-4.5989,-4.5989,0,-4.566,-4.5676,-4.571,-4.5746,-4.5775,-4.5766,-4.5794,-4.5818,-4.5856,-4.588,-4.591,-4.5955,-4.5992,-4.6008,-4.6044,-4.6067,-4.6064,-4.6076,-4.6073,-4.6077,-4.6005,-4.5992,-4.6079,-4.6079,-4.6079,-4.6079,-4.6079,-4.6079,-4.5707,-4.5757,-4.5764,-4.5824,-4.584,-4.5882,-4.5899,-4.5922,-4.5941,-4.5992,-4.6023,-4.6034,-4.6055,-4.6093,-4.6126,-4.613,-4.6143,-4.6157,-4.6159,-4.6091,-4.6082,-4.6073,-4.606,-4.616,-4.6161,-4.6228,-4.6228,-4.6229]},{"header":{"parameterUnit":"m.s-1","parameterCategory":1,"la1":30.2991,"la2":30.254,"lo1":-89.0895,"lo2":-89.0444,"dy":0.0017,"dx":0.0017,"nx":28,"ny":28,"refTime":"2025-04-21T03:00:00:Z","depth":0,"parameterNumber":3,"parameterNumberName":"V-component_of_WINDS"},"data":[0,0,0,0,0,0,0,0,0,0,0,0,0,0,0,0,0,0,0,0,0,0,0,0,0,0,0,0,0,0,0,0,0,0,0,0,0,0,0,0,0,0,0,0,0,0,0,0,0,0,0,0,0,0,0,0,0,0,3.7905,3.7905,0,3.7904,3.7904,3.7904,3.7886,3.7885,3.7885,3.7884,3.7879,3.7879,3.7879,0,0,0,0,0,0,0,0,0,0,0,0,0,3.7889,3.7889,3.7905,3.7905,3.7905,3.7904,3.7904,3.7904,3.7886,3.7885,3.7885,3.7884,3.7879,3.7879,3.7879,0,0,0,0,0,0,0,0,0,0,0,0,0,3.7892,3.7889,3.7905,3.7896,3.7895,3.7904,3.7904,3.7904,3.7886,3.7885,3.7885,3.7884,3.7879,3.7879,3.7879,3.7896,0,0,3.7881,3.7881,0,0,0,0,0,0,0,0,3.7892,3.7893,3.7897,3.7896,3.7895,3.7894,3.7896,3.7901,3.7886,3.7889,3.7884,3.7884,3.7884,3.7884,3.7885,3.7895,3.7895,3.7881,3.7881,3.7881,3.7881,0,0,0,0,0,0,0,3.7892,3.7893,3.7904,3.7897,3.7896,3.7891,3.7891,3.7897,3.789,3.7889,3.7888,3.7888,3.7884,3.7885,3.7885,3.7895,3.7881,3.7881,3.7881,3.7881,3.7922,3.7923,0,0,0,0,0,0,3.7893,3.7893,3.7904,3.7904,3.7892,3.7892,3.7892,3.7895,3.789,3.7889,3.7889,3.7887,3.7885,3.7885,3.7885,3.7906,3.7881,3.7881,3.7882,3.7921,3.7922,3.7923,0,0,0,0,0,0,3.7893,3.7895,3.7904,3.7898,3.7899,3.7893,3.7897,3.7896,3.7897,3.789,3.7888,3.7891,3.7884,3.7884,3.7894,3.7905,3.7882,3.7882,3.792,3.7921,3.7923,3.7946,0,0,0,0,0,0,3.7893,3.7895,3.7901,3.7899,3.79,3.7914,3.7898,3.7896,3.7898,3.7896,3.7892,3.7891,3.7884,3.7894,3.7895,3.7905,3.7882,3.7919,3.7921,3.7922,3.7944,3.7948,3.7951,0,0,0,0,0,3.7892,3.7905,3.7901,3.7902,3.7907,3.7915,3.7915,3.7908,3.7899,3.7905,3.7902,3.7891,3.7904,3.7895,3.7896,3.7907,3.7918,3.792,3.7922,3.7943,3.7947,3.7951,0,0,0,0,0,0,3.7906,3.7905,3.79,3.7913,3.7915,3.7912,3.7919,3.7912,3.7915,3.7913,3.7902,3.7902,3.7914,3.7911,3.7901,3.7924,3.791,3.7912,3.7925,3.7929,3.7933,3.7933,3.7883,0,0,0,0,0,3.7911,3.7919,3.7916,3.7928,3.793,3.7925,3.7927,3.7922,3.7923,3.7922,3.7919,3.7919,3.7924,3.7926,3.7929,3.7944,3.7944,3.7953,3.7956,3.7959,3.7961,3.7971,3.7976,3.7929,3.7929,3.7929,0,0,3.792,3.7921,3.7925,3.7931,3.7932,3.794,3.7925,3.7932,3.7938,3.7923,3.7933,3.7931,3.7931,3.7944,3.795,3.7942,3.7974,3.7961,3.7964,3.7964,3.7974,3.7978,3.7982,3.793,3.793,3.793,0,0,3.7942,3.7943,3.7954,3.7956,3.7959,3.7956,3.7959,3.7958,3.7957,3.7968,3.7958,3.7964,3.7971,3.7972,3.7973,3.8001,3.7992,3.8002,3.8019,3.803,3.8034,3.8037,3.8048,3.8052,3.8004,3.8004,3.8004,0,3.7953,3.7965,3.796,3.797,3.7974,3.7964,3.7976,3.7978,3.798,3.7983,3.7975,3.7987,3.7985,3.8,3.8007,3.8008,3.8012,3.8002,3.8034,3.8037,3.804,3.8051,3.8055,3.8005,3.8005,3.8005,3.8005,0,3.798,3.7989,3.7997,3.8004,3.8008,3.8019,3.8016,3.8021,3.8017,3.8015,3.8028,3.8026,3.8031,3.8034,3.8028,3.8049,3.8045,3.8036,3.8021,3.8046,3.8056,3.806,3.8007,3.8007,3.8006,3.8006,0,0,3.8006,3.8014,3.8017,3.8021,3.8025,3.8032,3.8043,3.805,3.8056,3.8059,3.8068,3.8077,3.807,3.8072,3.8066,3.8076,3.81,3.8065,3.8065,3.8073,3.8126,3.8133,3.8138,3.8095,3.8096,3.8096,3.8126,0,3.8029,3.805,3.8048,3.8068,3.8077,3.807,3.808,3.8084,3.8084,3.8091,3.809,3.8097,3.8086,3.8088,3.8097,3.8095,3.8111,3.8093,3.8104,3.8104,3.8105,3.8143,3.815,3.8178,3.813,3.8131,3.8131,0,3.8056,3.8064,3.8086,3.8093,3.8096,3.8106,3.8114,3.8121,3.8126,3.8125,3.813,3.8124,3.8136,3.8123,3.814,3.8128,3.8133,3.8133,3.8134,3.8134,3.8119,3.8145,3.8187,3.8191,3.8137,3.8136,3.8136,0,3.8076,3.8092,3.8108,3.8111,3.8118,3.8126,3.8129,3.8133,3.8139,3.8146,3.815,3.8157,3.8161,3.8168,3.8165,3.8155,3.8183,3.8168,3.8183,3.8183,3.8188,3.8188,3.8232,3.8191,3.8191,3.8191,3.8191,0,3.8101,3.8114,3.8117,3.8127,3.8143,3.8141,3.8157,3.8159,3.8164,3.8174,3.8168,3.8177,3.8173,3.8182,3.818,3.8196,3.8197,3.8197,3.8196,3.8198,3.8198,3.82,3.8198,3.8192,3.8192,3.8191,3.8191,0,3.8124,3.8126,3.8144,3.8151,3.8154,3.8165,3.8171,3.8181,3.8182,3.8195,3.8198,3.8199,3.821,3.8209,3.822,3.8219,3.8239,3.8235,3.8238,3.8237,3.8253,3.8252,3.83,3.8307,3.8261,3.8261,3.8262,0,3.814,3.8151,3.8161,3.8169,3.8174,3.8185,3.8193,3.8192,3.82,3.8209,3.8218,3.8229,3.8238,3.8257,3.8258,3.8268,3.8264,3.8281,3.8265,3.8268,3.8266,3.8266,3.8268,3.8284,3.8284,3.8284,3.8285,0,3.8168,3.817,3.8181,3.8194,3.8204,3.8213,3.8222,3.8228,3.8229,3.8238,3.8251,3.8259,3.8273,3.8285,3.8295,3.8297,3.8292,3.829,3.8294,3.8296,3.8298,3.8299,3.8247,3.8289,3.8288,3.8288,3.8288,3.8288,3.8189,3.82,3.821,3.8224,3.8231,3.8241,3.8251,3.8256,3.8267,3.828,3.828,3.8295,3.8302,3.8316,3.832,3.8332,3.8326,3.8331,3.8333,3.8334,3.8337,3.8297,3.8333,3.8333,3.8333,3.8333,3.8333,0,3.8218,3.8225,3.8238,3.8253,3.8264,3.8261,3.8272,3.8281,3.8295,3.8304,3.8315,3.8331,3.8344,3.8348,3.8361,3.837,3.8368,3.8373,3.8372,3.8373,3.8341,3.8337,3.8375,3.8375,3.8375,3.8375,3.8375,3.8375,3.8234,3.8254,3.8258,3.8282,3.8288,3.8305,3.8312,3.8321,3.8329,3.8349,3.836,3.8364,3.8372,3.8385,3.8397,3.8398,3.8403,3.841,3.841,3.8379,3.8375,3.8371,3.8367,3.8411,3.8411,3.8442,3.8442,3.8442]}]]